Location: Gro�sch�nbrunn
(49.5760°N, 11.8868°E)
Time: 05:30:46
(UTC+00:00)

USA 234 - Pass Details

Date: 18 September 2020
Orbit: 1102 x 1106 km, 123.0° (Epoch: 16 October)

Event Time Altitude Azimuth Distance (km) Brightness Sun altitude
Rises 23:41:22 0° 85° (E) 3,920 6.3 -38.5°
Reaches altitude 10° 23:43:56 10° 80° (E) 2,963 5.7 -38.4°
Maximum altitude 23:50:09 49° 8° (N) 1,399 4.0 -38.2°
Enters shadow 23:50:38 48° 355° (N) 1,414 4.0 -38.2°
Exits shadow 23:54:28 20° 304° (WNW) 2,292 5.0 -38.0°
Drops below altitude 10° 23:56:23 10° 297° (WNW) 2,967 5.6 -37.9°
Sets 23:58:56 0° 292° (WNW) 3,926 6.2 -37.8°
